{"data":{"norad_id":51887,"intl_designator":"2022-022AM","name":"STARLINK-3551","alt_names":[],"object_type":"PAYLOAD","status":"ACTIVE","operator":null,"country":"US","launch_date":"2022-03-03","launch_site_code":"AFETR","launch_vehicle":null,"mission":null,"orbit_class":"UNKNOWN","rcs_meters":null,"size_class":null,"mass_kg":null,"dimensions":null,"purposes":["comms"],"wikipedia_slug":null,"has_3d_model":false,"image_url":null,"decayed_at":null,"tle_current":{"epoch":"2026-09-19T07:03:27.017280Z","epoch_age_seconds":160400,"freshness":"FRESH","line1":"1 51887U 22022AM  26262.29406270  .00000671  00000+0  31008-4 0  9994","line2":"2 51887  53.1606 193.0116 0001212  79.7987 280.3152 15.34389369252704","mean_motion":15.34389369,"eccentricity":0.0001212,"inclination_deg":53.1606,"raan_deg":193.0116,"arg_perigee_deg":79.7987,"mean_anomaly_deg":280.3152,"bstar":3.1008e-5,"rev_number":25270,"period_min":93.848408304503,"perigee_km":461.90572429516,"apogee_km":463.56395162868,"semimajor_km":6840.8718379619,"source":"CELESTRAK","updated_at":"2026-09-20T09:00:39.972548Z"}}}